Location: Newark
(39.6172°N, 96.8533°W)
Time: 14:39:55
(UTC+00:00)

Envisat - Pass Details

Date: 04 February 2020
Orbit: 764 x 766 km, 98.1° (Epoch: 28 February)

Event Time Altitude Azimuth Distance (km) Brightness Sun altitude
Rises 11:43:35 0° 35° (NE) 3,237 6.7 -21.3°
Reaches altitude 10° 11:47:18 10° 63° (ENE) 2,304 6.3 -20.6°
Maximum altitude 11:49:33 13° 90° (E) 2,103 6.4 -20.1°
Drops below altitude 10° 11:51:48 10° 117° (ESE) 2,297 6.5 -19.7°
Sets 11:55:28 0° 144° (SE) 3,216 6.8 -19.0°
